TimeEST,TemperatureF,Dew PointF,Humidity,Sea Level PressureIn,VisibilityMPH,Wind Direction,Wind SpeedMPH,Gust SpeedMPH,PrecipitationIn,Events,Conditions,WindDirDegrees,DateUTC
12:53 AM,28.0,19.0,69,30.23,10.0,WSW,6.9,-,N/A,,Overcast,240,2013-01-04 05:53:00
1:53 AM,28.0,19.9,72,30.23,10.0,WSW,6.9,-,N/A,,Overcast,240,2013-01-04 06:53:00
3:53 AM,24.1,16.0,71,30.23,10.0,SW,10.4,-,N/A,,Mostly Cloudy,230,2013-01-04 08:53:00
4:22 AM,21.2,15.8,80,30.20,10.0,SW,11.5,-,N/A,,Scattered Clouds,230,2013-01-04 09:22:00
4:53 AM,21.0,14.0,74,30.23,10.0,WSW,10.4,-,N/A,,Clear,240,2013-01-04 09:53:00
5:53 AM,19.9,14.0,78,30.23,10.0,WSW,8.1,-,N/A,,Clear,240,2013-01-04 10:53:00
6:53 AM,19.0,12.9,77,30.25,10.0,SW,9.2,-,N/A,,Clear,230,2013-01-04 11:53:00
7:53 AM,17.1,12.0,81,30.24,10.0,SW,10.4,-,N/A,,Clear,220,2013-01-04 12:53:00
8:53 AM,17.1,10.9,77,30.24,10.0,SW,10.4,18.4,N/A,,Clear,220,2013-01-04 13:53:00
9:53 AM,18.0,10.9,74,30.25,10.0,SW,10.4,18.4,N/A,,Clear,230,2013-01-04 14:53:00
10:53 AM,19.9,10.9,68,30.26,10.0,WSW,10.4,20.7,N/A,,Clear,240,2013-01-04 15:53:00
11:53 AM,21.0,10.9,65,30.24,10.0,WSW,11.5,21.9,N/A,,Clear,240,2013-01-04 16:53:00
12:53 PM,23.0,12.9,65,30.22,10.0,WSW,12.7,20.7,N/A,,Clear,240,2013-01-04 17:53:00
1:53 PM,26.1,15.1,63,30.20,10.0,WSW,17.3,25.3,N/A,,Clear,240,2013-01-04 18:53:00
2:53 PM,26.1,16.0,66,30.19,10.0,SW,15.0,21.9,N/A,,Clear,220,2013-01-04 19:53:00
3:53 PM,25.0,16.0,69,30.19,10.0,SW,17.3,25.3,N/A,,Clear,220,2013-01-04 20:53:00
4:53 PM,25.0,16.0,69,30.20,10.0,SW,15.0,21.9,N/A,,Clear,220,2013-01-04 21:53:00
5:53 PM,24.1,16.0,71,30.21,10.0,SW,15.0,21.9,N/A,,Clear,220,2013-01-04 22:53:00
6:53 PM,25.0,17.1,72,30.23,10.0,SW,11.5,-,N/A,,Clear,230,2013-01-04 23:53:00
7:53 PM,24.1,17.1,75,30.25,10.0,SW,8.1,-,N/A,,Clear,220,2013-01-05 00:53:00
8:53 PM,23.0,17.1,78,30.26,10.0,SW,5.8,-,N/A,,Clear,230,2013-01-05 01:53:00
9:53 PM,24.1,18.0,77,30.27,10.0,SW,5.8,-,N/A,,Clear,230,2013-01-05 02:53:00
10:53 PM,24.1,18.0,77,30.27,10.0,WSW,5.8,-,N/A,,Clear,240,2013-01-05 03:53:00
11:53 PM,21.0,16.0,81,30.29,9.0,SSW,4.6,-,N/A,,Clear,210,2013-01-05 04:53:00